Home   Weather   Reno   Past weeks
Flag for USA

Past Weather in Reno, Nevada, USA — Yesterday and Last 2 Weeks

Now
61 °F

Passing clouds.


Feels Like: 61 °F
Forecast: 64 / 35 °F
Wind: 5 mph from North

Location: Reno Tahoe International Airport

Current Time: Oct 20, 2019 at 3:00:28 pm

Latest Report: Oct 20, 2019 at 1:55 pm


Visibility: 10 mi

Pressure: 30.10 "Hg (25.60 "Hg at 1372m altitude)

Humidity: 31%

Dew Point: 30 °F

Location of RenoLocation

Past Weather in Reno — Graph

°F

Reno Temperature Yesterday

Maximum temperature yesterday: 63 °F (at 12:55 pm)
Minimum temperature yesterday: 39 °F (at 4:55 am)
Average temperature yesterday: 52 °F

High & Low Weather Summary for the Past Weeks

 TemperatureHumidityPressure
High80 °F (Oct 8, 1:55 pm)70% (Oct 18, 6:55 am)30.31 "Hg (Oct 18, 6:55 am)
Low30 °F (Oct 11, 5:55 am)9% (Oct 10, 2:55 pm)29.65 "Hg (Oct 17, 3:55 am)
Average53 °F33%30.02 "Hg
* Reported Oct 5 12:55 pm — Oct 20 12:55 pm, Reno. Weather by CustomWeather, © 2019

Note: Actual official high and low records may vary slightly from our data, if they occured in-between our weather recording intervals... More about our weather records

Advertising

Reno Weather History for the Previous 24 Hours

Scroll right to see more
 ConditionsComfort  
Time TempWeatherWind HumidityBarometerVisibility
12:55 pm
Sun, Oct 20
57 °FPassing clouds.No wind36%30.14 "Hg10 mi
11:55 am55 °FPassing clouds.5 mph37%30.15 "Hg10 mi
10:55 am49 °FPassing clouds.No wind48%30.17 "Hg10 mi
9:55 am46 °FPassing clouds.No wind51%30.18 "Hg10 mi
8:55 am40 °FPassing clouds.No wind63%30.19 "Hg10 mi
7:55 am35 °FPassing clouds.5 mph70%30.17 "Hg10 mi
6:55 am36 °FPassing clouds.No wind70%30.16 "Hg10 mi
5:55 am37 °FClear.No wind65%30.14 "Hg10 mi
4:55 am39 °FClear.6 mph62%30.11 "Hg10 mi
3:55 am39 °FClear.No wind62%30.11 "Hg10 mi
2:55 am40 °FPassing clouds.No wind60%30.10 "Hg10 mi
1:55 am42 °FPassing clouds.5 mph60%30.08 "Hg10 mi
12:55 am44 °FClear.6 mph60%30.06 "Hg10 mi
11:55 pm
Sat, Oct 19
46 °FClear.5 mph54%30.06 "Hg10 mi
10:55 pm48 °FClear.8 mph46%30.04 "Hg10 mi
9:55 pm50 °FClear.9 mph41%30.02 "Hg10 mi
8:55 pm51 °FClear.12 mph38%30.00 "Hg10 mi
7:55 pm53 °FPassing clouds.10 mph37%30.01 "Hg10 mi
6:55 pm55 °FPassing clouds.8 mph34%30.00 "Hg10 mi
5:55 pm57 °FBroken clouds.10 mph31%29.98 "Hg10 mi
4:55 pm59 °FBroken clouds.10 mph31%29.97 "Hg10 mi
3:55 pm62 °FScattered clouds.25 mph32%29.95 "Hg10 mi
Weather by CustomWeather, © 2019

See weather overview